Location: Unspecified
(0.0000°N, 0.0000°E)
Time: 17:49:46
(UTC+00:00)

STARLINK 1052 - Pass Details

Date: 17 January 2020
Orbit: 437 x 439 km, 53.0° (Epoch: 18 January)

Event Time Altitude Azimuth Distance (km) Brightness Sun altitude
Rises 05:19:19 0° 207° (SSW) 2,411 6.8 -11.8°
Maximum altitude 05:24:51 54° 124° (SE) 536 4.0 -10.5°
Drops below altitude 10° 05:28:13 10° 46° (NE) 1,533 6.2 -9.7°
Sets 05:30:21 0° 41° (NE) 2,398 7.2 -9.2°
